Regional Weather Roundup
Issued by NWS San Angelo, TX

Home | Current Version | Previous Version | Text Only | Print | Product List | Glossary On
Versions: 1 2 3 4 5 6 7 8 9 10 11 12 13 14 15 16 17 18 19 20 21 22 23 24 25 26 27 28 29 30 31 32 33 34 35 36 37 38 39 40 41 42 43 44 45 46 47 48 49 50
000
ASUS44 KSJT 222110
RWRSJT
WEST CENTRAL TEXAS REGIONAL WEATHER ROUNDUP
NATIONAL WEATHER SERVICE SAN ANGELO TX
400 PM CDT THU JUN 22 2017

NOTE: "FAIR" INDICATES FEW OR NO CLOUDS BELOW 12,000 FEET WITH NO
SIGNIFICANT WEATHER AND/OR OBSTRUCTIONS TO VISIBILITY.

TXZ049-054-064>066-071>073-076>078-098-099-113-114-127-128-139-140-
154-155-168>170-222200
...LOCATIONS ACROSS WEST CENTRAL TEXAS...

CITY           SKY/WX    TMP DP  RH WIND       PRES   REMARKS
SAN ANGELO     SUNNY    102  54  20 NE8       29.72F
ABILENE        SUNNY     94  53  25 CALM      29.73F
DYESS AFB      MOSUNNY   94  60  31 E8        29.71F
JUNCTION       SUNNY     99  56  23 CALM      29.71F
SWEETWATER     SUNNY     95  57  27 E8        29.77F
BROWNWOOD      LGT RAIN  93  52  24 W3        29.71F
COLEMAN        CLEAR     97  52  22 S5        29.72F
SONORA         SUNNY     99  57  25 SW7       29.79F
OZONA          FAIR      99  52  20 SW8       29.79F
BRADY          NOT AVBL
$$

TEXAS PANHANDLE/OKLAHOMA PANHANDLE

CITY           SKY/WX    TMP DP  RH WIND       PRES   REMARKS
AMARILLO       SUNNY     98  54  22 S12G24    29.77F
BORGER         SUNNY    100  52  19 W7        29.71F
CANADIAN       SUNNY     97  60  29 S8G16     29.68F
DALHART        SUNNY    103  42  12 CALM      29.76F
DUMAS          CLEAR     99  49  18 SW6G18    29.74F
GUYMON         NOT AVBL
HEREFORD       CLEAR     98  59  27 S15       29.78F
PAMPA          CLEAR     99  56  24 S13G23    29.75F
PERRYTON       SUNNY     97  59  28 S12G18    29.71F
$$

SOUTHERN PANHANDLE/SOUTH PLAINS/ROLLING PLAINS

CITY           SKY/WX    TMP DP  RH WIND       PRES   REMARKS
LUBBOCK        SUNNY     96  54  24 S6        29.78F
SNYDER         SUNNY     96  57  26 CALM      29.75F
CHILDRESS      SUNNY     97  56  25 S8        29.70F
SEMINOLE       CLEAR     99  48  17 S6        29.80F
$$

PERMIAN BASIN

CITY           SKY/WX    TMP DP  RH WIND       PRES   REMARKS
MIDLAND        SUNNY    100  52  19 S7        29.76F
ODESSA         SUNNY    100  48  17 S8        29.78F
WINK           SUNNY    104  47  14 NE7       29.73F
$$

FAR WEST/SOUTHWEST MOUNTAINS/TRANS PECOS

CITY           SKY/WX    TMP DP  RH WIND       PRES   REMARKS
ALPINE         CLEAR     97  44  16 E12       29.95S
DRYDEN           N/A    101  57  23 SE8       29.72F
EL PASO        FAIR     106  39  10 W14       29.80F
FORT STOCKTON  SUNNY    103  50  17 NE9       29.76F
GUADALUPE PASS SUNNY    101  44  14 W15G21    29.96F
MARFA          PTSUNNY   91  48  22 E16       29.94R
PECOS          CLEAR    104  50  16 NE5       29.71F
$$

DALLAS/FORT WORTH METROPLEX

CITY           SKY/WX    TMP DP  RH WIND       PRES   REMARKS
DFW AIRPORT    CLOUDY    89  72  56 VRB6      29.65F
FTW MEACHAM    PTSUNNY   87  74  64 VRB7      29.67F
DAL-EXECUTIVE  CLOUDY    86  73  65 NW7       29.66F
GRAND PRAIRIE  SUNNY     86  70  58 N5        29.68F
ADDISON        CLOUDY    84  72  65 N6        29.67F
MESQUITE       MOCLDY    88  72  58 NW8       29.66S
LANCASTER      CLOUDY    85  72  64 W10       29.67F
$$

NORTH CENTRAL TEXAS

CITY           SKY/WX    TMP DP  RH WIND       PRES   REMARKS
SHRMAN/DENISON CLOUDY    84  72  65 NW6       29.69F
GAINESVILLE    CLOUDY    85  71  63 CALM      29.70F
BRIDGEPORT     MOCLDY    87  68  52 E3        29.70F
DENTON         CLOUDY    90  74  59 VRB3      29.67F
WAXAHACHIE     CLOUDY    86  73  64 NW3       29.68F
GRANBURY       MOCLDY    91  68  46 NW7       29.69F
$$

WESTERN NORTH TEXAS

CITY           SKY/WX    TMP DP  RH WIND       PRES   REMARKS
WICHITA FALLS  MOSUNNY   90  61  37 CALM      29.67F
VERNON         CLEAR     94  53  24 S9        29.69F
BRECKENRIDGE   CLEAR     94  53  25 N5        29.69F
COMANCHE       SUNNY     92  62  36 NW7       29.72F
$$

CENTRAL AND SOUTH CENTRAL TEXAS

CITY           SKY/WX    TMP DP  RH WIND       PRES   REMARKS
AUSTIN/BERGSTM MOSUNNY   96  68  39 VRB3      29.66F
WACO           CLOUDY    91  71  51 NW7       29.66F
HILLSBORO      CLOUDY    85  75  71 W7        29.68F
TEMPLE         CLOUDY    94  71  47 NW9       29.67F
KILLEEN-GRAY   PTSUNNY   92  67  44 NW8       29.67F
FORT HOOD      MOSUNNY  N/A N/A N/A W7        29.65F
GEORGETOWN     MOSUNNY   93  66  40 SW8       29.67F
LAGO VISTA     FAIR      92  64  38 CALM      29.70F
SAN MARCOS     SUNNY     95  70  43 CALM      29.68F
NEW BRAUNFELS  SUNNY     97  64  33 S7        29.66F
RANDOLPH AFB   SUNNY     98  56  24 SW8       29.67F
SAN ANTONIO    PTSUNNY   97  54  23 W8        29.68F
STINSON        SUNNY     98  57  25 VRB3      29.66F
PLEASANTON     NOT AVBL
LA GRANGE      CLOUDY    93  72  49 CALM      29.66F
GIDDINGS       CLOUDY    91  69  48 CALM      29.69F
$$

EAST TEXAS

CITY           SKY/WX    TMP DP  RH WIND       PRES   REMARKS
PARIS            N/A     87  76  69 N8        29.65F
CLARKSVILLE    NOT AVBL
TYLER          CLOUDY    83  77  82 NW10      29.62F
LONGVIEW       CLOUDY    77  77 100 W9        29.59S
PALESTINE      CLOUDY    80  76  86 CALM      29.65F
NACOGDOCHES    PTSUNNY   81  73  78 MISG      29.61R
$$

TEXAS HILL COUNTRY AND EDWARDS PLATEAU

CITY           SKY/WX    TMP DP  RH WIND       PRES   REMARKS
LLANO          CLEAR     93  57  29 NW8       29.73S
HORSESHOE BAY  FAIR      96  60  30 MISG      29.69F
KERRVILLE      SUNNY     98  49  19 W6        29.73F
FREDERICKSBRG  CLOUDY    92  43  18 CALM      29.74F
ROCKSPRINGS    CLEAR     97  55  24 CALM      29.79F
HONDO          SUNNY    100  57  23 VRB3      29.69F
UVALDE         CLEAR     96  61  31 CALM      29.70F
DEL RIO        SUNNY     99  62  29 SE7       29.67F
$$

SOUTHEAST TEXAS

CITY           SKY/WX    TMP DP  RH WIND       PRES   REMARKS
COLLEGE STN    CLOUDY    85  74  69 W9        29.68S
CALDWELL       NOT AVBL
CROCKETT       LGT RAIN  79  77  94 W9        29.68S
BRENHAM        CLOUDY    87  73  62 W6        29.69S
HUNTSVILLE     CLOUDY    82  74  76 SW6       29.67S
CONROE         CLOUDY    85  74  69 SW8       29.67F
HOUSTON BUSH   PTSUNNY   87  74  64 W7        29.67F
HOUSTON HOBBY  CLOUDY    89  74  60 SW9       29.68F
PERLAND        CLOUDY    89  72  56 SW8       29.70F
WHARTON        PTCLDY    91  67  45 SW6       29.70F
$$

THE UPPER TEXAS COAST

CITY           SKY/WX    TMP DP  RH WIND       PRES   REMARKS
ORANGE         CLOUDY    83  75  78 SW17G23   29.71R
PORT ARTHUR    CLOUDY    83  74  74 S14G26    29.69R
GALVESTON      CLOUDY    85  78  80 S21       29.72F
ANGLETON       CLOUDY    89  75  63 S10       29.70F
BAY CITY       CLOUDY    92  72  52 S14       29.70F
$$

TEXAS COASTAL BEND, RIO GRANDE PLAINS DEEP SOUTH TEXAS

CITY           SKY/WX    TMP DP  RH WIND       PRES   REMARKS
VICTORIA       PTSUNNY   99  63  30 S13G20    29.66F
BEEVILLE       FAIR     102  64  28 CALM      29.65F
ROCKPORT       SUNNY     92  77  61 S14G24    29.68F
PORT ARANSAS   CLEAR     89  77  67 S14G22    29.69F
PORT LAVACA    MOCLDY    90  76  63 S8G21     29.69S
CORPUS CHRISTI MOSUNNY   95  78  58 SE18      29.67F
KINGSVILLE NAS MOSUNNY   98  79  54 SE18      29.65F HX 116
COTULLA        MOSUNNY  104  56  20 VRB7      29.65F
LAREDO         SUNNY    106  62  23 VRB5      29.65F
BROWNSVILLE    SUNNY     96  75  50 SE24G35   29.69F
PORT ISABEL    PTSUNNY   98  74  45 SE23G31   29.67F HAZE
HEBBRONVILLE   CLEAR    103  55  20 SE7       29.66F
MCALLEN        SUNNY    111  60  19 E9        29.62F
WESLACO        CLOUDY   103  66  29 SE16G24   29.63F
FALFURRIAS     PTCLDY   106  57  20 W7        29.62F
EDINBURG       MOCLDY   107  51  15 S8        29.63F
$$




USA.gov is the U.S. government's official web portal to all federal, state and local government web resources and services.